Lake D'Arbonne Weather Center

Moon Phase Calendar



Lake D'Arbonne Water Level
Online Cameras

 


      

Current Conditions in Farmerville
9/21/2021 5:16:50 AM

75°F
Feels Like 77
Clear
Humidity
96%
Pressure
29.94"
Wind
4.1 mph (SSW)
Dew Point
74°F
UV Index
0/10 (Low)
Visibility
6 mi

Hourly Forecast

Date & Time Tue, Sep 21
5:00 AM
Tue, Sep 21
6:00 AM
Tue, Sep 21
7:00 AM
Tue, Sep 21
8:00 AM
Tue, Sep 21
9:00 AM
Tue, Sep 21
10:00 AM
Tue, Sep 21
11:00 AM
Tue, Sep 21
12:00 PM
Tue, Sep 21
1:00 PM
Tue, Sep 21
2:00 PM
Tue, Sep 21
3:00 PM
Tue, Sep 21
4:00 PM
Tue, Sep 21
5:00 PM
Tue, Sep 21
6:00 PM
Tue, Sep 21
7:00 PM
Tue, Sep 21
8:00 PM
Tue, Sep 21
9:00 PM
Tue, Sep 21
10:00 PM
Tue, Sep 21
11:00 PM
Wed, Sep 22
12:00 AM
Wed, Sep 22
1:00 AM
Wed, Sep 22
2:00 AM
Wed, Sep 22
3:00 AM
Wed, Sep 22
4:00 AM
Wed, Sep 22
5:00 AM
Wed, Sep 22
6:00 AM
Wed, Sep 22
7:00 AM
Wed, Sep 22
8:00 AM
Wed, Sep 22
9:00 AM
Wed, Sep 22
10:00 AM
Wed, Sep 22
11:00 AM
Wed, Sep 22
12:00 PM
Wed, Sep 22
1:00 PM
Wed, Sep 22
2:00 PM
Wed, Sep 22
3:00 PM
Wed, Sep 22
4:00 PM
Wed, Sep 22
5:00 PM
Wed, Sep 22
6:00 PM
Wed, Sep 22
7:00 PM
Wed, Sep 22
8:00 PM
Wed, Sep 22
9:00 PM
Wed, Sep 22
10:00 PM
Wed, Sep 22
11:00 PM
Thu, Sep 23
12:00 AM
Thu, Sep 23
1:00 AM
Thu, Sep 23
2:00 AM
Thu, Sep 23
3:00 AM
Thu, Sep 23
4:00 AM
Condition
Clear

Clear

Clear

Clear

Clear

Clear

Clear

Rain

Rain

Rain

Clouds

Clear

Rain

Rain

Rain

Rain

Clouds

Clouds

Clouds

Rain

Clouds

Clouds

Clouds

Clouds

Clouds

Clouds

Clouds

Clear

Clear

Clear

Clear

Clear

Clear

Clear

Clear

Clear

Clear

Clear

Clear

Clear

Clear

Clear

Clear

Clear

Clear

Clear

Clear

Clear
Temperature 75°F74°F74°F75°F79°F84°F88°F88°F89°F91°F92°F92°F79°F73°F71°F71°F70°F69°F68°F67°F66°F64°F62°F59°F57°F55°F54°F57°F62°F69°F73°F77°F78°F80°F80°F79°F78°F74°F66°F64°F62°F61°F59°F58°F58°F57°F56°F56°F
Feels Like 77°F76°F75°F76°F79°F90°F93°F96°F97°F97°F97°F98°F79°F75°F72°F72°F71°F70°F69°F68°F67°F65°F62°F58°F56°F55°F54°F56°F61°F68°F72°F75°F77°F80°F80°F79°F77°F73°F65°F62°F61°F60°F58°F57°F56°F56°F55°F54°F
Cloudiness 0%0%0%4%4%7%10%9%8%10%11%10%13%31%42%100%100%100%99%81%79%19%17%28%38%32%28%0%0%0%0%0%0%0%0%0%0%0%0%0%0%0%0%0%0%0%0%0%
Visibility 6 mi6 mi6 mi6 mi6 mi6 mi6 mi6 mi6 mi6 mi6 mi6 mi4 mi5 mi6 mi6 mi6 mi6 mi6 mi6 mi6 mi6 mi6 mi6 mi6 mi6 mi6 mi6 mi6 mi6 mi6 mi6 mi6 mi6 mi6 mi6 mi6 mi6 mi6 mi6 mi6 mi6 mi6 mi6 mi6 mi6 mi6 mi6 mi
Precipitation 0%0%0%3%4%1%20%44%63%65%65%81%94%100%100%76%64%49%45%41%33%0%0%0%0%0%0%0%0%0%0%0%0%0%0%0%0%0%0%0%0%0%0%0%0%0%0%0%
Humidity 96%96%97%91%80%66%58%62%59%50%49%50%87%95%98%97%97%96%96%95%93%93%92%90%90%89%87%82%66%47%38%31%28%26%26%26%32%41%52%52%53%55%58%61%63%64%65%66%
Dew Point 74°F73°F73°F72°F72°F72°F71°F73°F73°F70°F70°F70°F75°F72°F70°F70°F69°F68°F67°F65°F64°F62°F59°F56°F54°F52°F51°F52°F51°F48°F46°F44°F43°F42°F42°F42°F46°F48°F48°F46°F45°F45°F45°F45°F45°F45°F45°F44°F
Pressure 29.94"29.94"29.94"29.97"30"30.03"30"30"30"29.97"29.94"29.88"29.85"30"30.06"30.06"30.09"30.09"30.12"30.12"30.15"30.15"30.15"30.15"30.15"30.18"30.18"30.21"30.21"30.21"30.21"30.18"30.15"30.15"30.12"30.09"30.09"30.09"30.09"30.09"30.12"30.12"30.12"30.12"30.12"30.12"30.12"30.12"
Wind Speed 4.1 mph4 mph4.3 mph4.2 mph5.5 mph5.6 mph5.4 mph6.5 mph5.7 mph6.6 mph5.8 mph6.9 mph11.4 mph8.4 mph4.4 mph5.1 mph6.8 mph7.8 mph7.2 mph7.3 mph8.1 mph8.1 mph7 mph6.3 mph5.8 mph5.5 mph5.1 mph4.6 mph7 mph8.9 mph11.4 mph11.7 mph11.5 mph10.9 mph10.4 mph9.8 mph7.8 mph6.3 mph5.2 mph4.3 mph4.2 mph3.5 mph3.1 mph2.2 mph1.3 mph1.2 mph2.2 mph2.5 mph
Wind
Direction
203°
SSW
209°
SSW
216°
SW
220°
SW
231°
SW
253°
WSW
251°
WSW
266°
W
292°
WNW
296°
WNW
290°
WNW
335°
NNW
339°
NNW
351°
N
356°
N
17°
NNE

N

N
10°
N
17°
NNE

N
358°
N
347°
NNW
345°
NNW
340°
NNW
339°
NNW
347°
NNW
348°
NNW
359°
N

N
15°
NNE
15°
NNE
14°
NNE
12°
NNE
11°
N
14°
NNE
21°
NNE
28°
NNE
36°
NE
41°
NE
42°
NE
59°
ENE
87°
E
109°
ESE
82°
E
22°
NNE

N
23°
NNE

Daily Forecast

Date High Low Precip. Humidity
Today
Sep 21

Rain
92 °F
68 °F
100%
59%
Wednesday
Sep 22

Rain
80 °F
54 °F
41%
28%
Thursday
Sep 23

Clear
80 °F
54 °F
0%
31%
Friday
Sep 24

Clouds
80 °F
55 °F
0%
36%
Saturday
Sep 25

Clouds
83 °F
58 °F
0%
34%
Sunday
Sep 26

Clouds
82 °F
59 °F
0%
36%
Monday
Sep 27

Clouds
85 °F
62 °F
0%
45%
Tuesday
Sep 28

Clouds
85 °F
65 °F
0%
49%
Wednesday
Sep 29

Clouds
87 °F
66 °F
0%
45%
Thursday
Sep 30

Clear
82 °F
61 °F
0%
41%
Friday
Oct 1

Clear
82 °F
60 °F
0%
38%
Saturday
Oct 2

Clear
86 °F
61 °F
0%
38%
Sunday
Oct 3

Clear
90 °F
63 °F
0%
36%
Monday
Oct 4

Clear
89 °F
65 °F
0%
37%
Tuesday
Oct 5

Clear
89 °F
65 °F
0%
38%
Wednesday
Oct 6

Clear
89 °F
65 °F
0%
41%

Temperature 8-14 Day Outlook



Precipitation 8-14 Day Outlook




Quick Links
Lake D'Arbonne News
Lake D'Arbonne Photos
Lake D'Arbonne Videos




About Us
Contact Us
Site Map
Search Site
Advertise With Us
   
DArbonne.LakesOnline.com
THE LAKE D'ARBONNE WEBSITE

Copyright 2021, Lakes Online
Privacy    |    Legal